Hourly Data Report for November 03, 2017

All times are specified in Local Standard Time (LST). Add 1 hour to adjust for Daylight Saving Time where and when it is observed.

BATHURST A
NEW BRUNSWICK

47°37'47.000" N
65°44'20.000" W
58.80 m
8100505
71574
ZBF

Download Data

Hourly Data (November 2017)
Hourly Data Report for November 3, 2017
Temp Definition
°C
Dew Point Temp Definition
°C
Rel Hum Definition
%
Wind Dir Definition
10's deg

Wind Spd Definition
km/h
Visibility Definition
km
Stn Press Definition
kPa
Hmdx Definition


Wind Chill Definition


Weather Definition


TIME
00:00 Legend Double Dagger 9.0 8.6 97 19 13 16.1 101.14     LegendNANA
01:00 Legend Double Dagger 9.7 8.9 95 19 17 19.3 101.08     LegendNANA
02:00 Legend Double Dagger 10.1 9.4 95 18 13 19.3 100.99     Mostly Cloudy
03:00 Legend Double Dagger 10.8 10.1 95 18 16 16.1 100.87     LegendNANA
04:00 Legend Double Dagger 11.6 10.4 92 19 18 19.3 100.75     LegendNANA
05:00 Legend Double Dagger 11.8 10.8 94 18 20 16.1 100.64     Cloudy
06:00 Legend Double Dagger 12.2 11.4 95 19 16 14.5 100.55     LegendNANA
07:00 Legend Double Dagger 12.7 11.9 95 19 21 12.9 100.44     LegendNANA
08:00 Legend Double Dagger 13.5 12.5 94 19 22 12.9 100.38     Cloudy
09:00 Legend Double Dagger 14.4 13.2 92 19 27 12.9 100.28     LegendNANA
10:00 Legend Double Dagger 15.6 13.6 87 19 24 12.9 100.15     LegendNANA
11:00 Legend Double Dagger 16.5 14.0 85 18 20 16.1 100.05     Cloudy
12:00 Legend Double Dagger 15.7 14.2 90 19 23 4.8 99.98     Moderate Rain Showers,Fog
13:00 Legend Double Dagger 13.0 11.3 90 20 15 6.4 100.05     Rain Showers,Fog
14:00 Legend Double Dagger 13.0 11.7 92 21 13 12.9 99.96     Rain
15:00 Legend Double Dagger 12.8 12.0 95 22 8 11.3 99.93     Rain Showers
16:00 Legend Double Dagger 13.0 12.4 96 21 12 8.1 99.91     Rain Showers,Fog
17:00 Legend Double Dagger 12.3 11.6 95 34 7 16.1 99.91     Cloudy
18:00 Legend Double Dagger 11.3 10.5 94 36 2 16.1 99.83     Rain Showers
19:00 Legend Double Dagger 10.7 10.4 98 21 3 16.1 99.85     LegendNANA
20:00 Legend Double Dagger 10.9 8.5 85 24 23 19.3 99.81     Mainly Clear
21:00 Legend Double Dagger 9.4 6.8 83 28 18 24.1 99.97     LegendNANA
22:00 Legend Double Dagger 8.0 4.5 79 28 16 24.1 100.09     LegendNANA
23:00 Legend Double Dagger 6.4 2.1 74 28 22 24.1 100.19     Clear

Notes on Data Quality.

Legend

  • E = Estimated
  • M = Missing
  • NA = Not Available
  • ‡ = Partner data that is not subject to review by the National Climate Archives
Date modified: